When you browse on this site, cookies collect data to enhance your experience and personalize the content and advertising you see.
Visit our Privacy Policy to learn more. By continuing to use the site, you agree to this use of cookies and data.
  • In Czech Republic
  • List of Countries
  • For 7 days
  • Water Temperature
  • Satellite Maps
  • Weather Map
  • Weather Widgets
  • user-avatar
    Login

    Hourly Weather Gold Coast

    Today, 23 March, Saturday

    Time Temperature Precipitation Wind Pressure Humidity
    00:00 +24°C° 0.7 mm 1 mps 758 mmHg 93%
    01:00 +24°C° 0.7 mm 1 mps 758 mmHg 93%
    02:00 +23°C° 0.5 mm 1 mps 757 mmHg 94%
    03:00 +23°C° 0.5 mm 1 mps 757 mmHg 95%
    04:00 +23°C° 0 mm 1 mps 757 mmHg 95%
    05:00 +23°C° 0.1 mm 1 mps 758 mmHg 95%
    06:00 +24°C° 0.1 mm 1 mps 758 mmHg 94%
    07:00 +24°C° 0.1 mm 2 mps 758 mmHg 94%
    08:00 +26°C° 0.1 mm 2 mps 758 mmHg 84%
    09:00 +28°C° 0.1 mm 2 mps 758 mmHg 74%
    10:00 +30°C° 0 mm 2 mps 758 mmHg 63%
    11:00 +33°C° 0 mm 3 mps 757 mmHg 56%
    12:00 +34°C° 0 mm 3 mps 757 mmHg 50%
    13:00 +35°C° 0 mm 3 mps 756 mmHg 43%
    14:00 +35°C° 0 mm 3 mps 756 mmHg 47%
    15:00 +34°C° 0 mm 4 mps 755 mmHg 50%
    16:00 +33°C° 0 mm 4 mps 755 mmHg 56%
    17:00 +30°C° 0 mm 4 mps 755 mmHg 65%
    18:00 +28°C° 0 mm 4 mps 756 mmHg 74%
    19:00 +26°C° 0 mm 3 mps 756 mmHg 84%
    20:00 +26°C° 0 mm 3 mps 756 mmHg 86%
    21:00 +26°C° 0 mm 3 mps 756 mmHg 87%
    22:00 +25°C° 0 mm 3 mps 757 mmHg 89%
    23:00 +25°C° 0 mm 3 mps 757 mmHg 89%

    Tomorrow, 24 March, Sunday

    Time Temperature Precipitation Wind Pressure Humidity
    00:00 +25°C° 0 mm 3 mps 757 mmHg 89%
    01:00 +25°C° 0 mm 3 mps 757 mmHg 89%
    02:00 +25°C° 0 mm 3 mps 757 mmHg 89%
    03:00 +24°C° 0 mm 3 mps 757 mmHg 89%
    04:00 +24°C° 0 mm 3 mps 756 mmHg 89%
    05:00 +24°C° 0 mm 3 mps 757 mmHg 87%
    06:00 +25°C° 0 mm 3 mps 757 mmHg 84%
    07:00 +25°C° 0 mm 3 mps 757 mmHg 82%
    08:00 +27°C° 0 mm 3 mps 757 mmHg 72%
    09:00 +30°C° 0 mm 3 mps 757 mmHg 62%
    10:00 +33°C° 0 mm 3 mps 757 mmHg 52%
    11:00 +34°C° 0 mm 3 mps 757 mmHg 48%
    12:00 +36°C° 0 mm 3 mps 756 mmHg 44%
    13:00 +37°C° 0 mm 4 mps 756 mmHg 40%
    14:00 +36°C° 0 mm 4 mps 755 mmHg 44%
    15:00 +35°C° 0 mm 4 mps 755 mmHg 47%
    16:00 +34°C° 0 mm 5 mps 755 mmHg 51%
    17:00 +32°C° 0 mm 4 mps 755 mmHg 59%
    18:00 +29°C° 0 mm 4 mps 755 mmHg 68%
    19:00 +27°C° 0 mm 4 mps 755 mmHg 76%
    20:00 +27°C° 0 mm 4 mps 756 mmHg 78%
    21:00 +26°C° 0 mm 3 mps 756 mmHg 80%
    22:00 +26°C° 0 mm 3 mps 757 mmHg 81%
    23:00 +26°C° 0 mm 3 mps 757 mmHg 83%

    Day after tomorrow, 25 March, Monday

    Time Temperature Precipitation Wind Pressure Humidity
    00:00 +25°C° 0 mm 3 mps 757 mmHg 84%
    01:00 +25°C° 0 mm 3 mps 757 mmHg 86%
    02:00 +25°C° 0 mm 3 mps 756 mmHg 86%
    03:00 +24°C° 0 mm 3 mps 756 mmHg 86%
    04:00 +24°C° 0 mm 3 mps 756 mmHg 86%
    05:00 +24°C° 0 mm 3 mps 757 mmHg 84%
    06:00 +25°C° 0 mm 3 mps 757 mmHg 81%
    07:00 +25°C° 0 mm 3 mps 758 mmHg 79%
    08:00 +27°C° 0 mm 3 mps 758 mmHg 71%
    09:00 +29°C° 0 mm 3 mps 758 mmHg 63%
    10:00 +32°C° 0 mm 4 mps 758 mmHg 54%
    11:00 +33°C° 0 mm 4 mps 757 mmHg 52%
    12:00 +34°C° 0 mm 4 mps 757 mmHg 50%
    13:00 +34°C° 0 mm 4 mps 756 mmHg 48%
    14:00 +34°C° 0 mm 4 mps 756 mmHg 52%
    15:00 +33°C° 0 mm 4 mps 756 mmHg 56%
    16:00 +32°C° 0 mm 4 mps 755 mmHg 60%
    17:00 +29°C° 0 mm 4 mps 756 mmHg 68%
    18:00 +28°C° 0 mm 4 mps 756 mmHg 76%
    19:00 +26°C° 0 mm 3 mps 757 mmHg 84%
    20:00 +26°C° 0 mm 3 mps 757 mmHg 85%
    21:00 +26°C° 0 mm 3 mps 758 mmHg 86%
    22:00 +26°C° 0 mm 3 mps 758 mmHg 86%
    23:00 +26°C° 0 mm 3 mps 758 mmHg 87%

    26 March, Tuesday

    Time Temperature Precipitation Wind Pressure Humidity
    00:00 +26°C° 0 mm 3 mps 757 mmHg 88%
    01:00 +26°C° 0 mm 3 mps 757 mmHg 88%
    02:00 +26°C° 0 mm 3 mps 757 mmHg 88%
    03:00 +25°C° 0 mm 3 mps 757 mmHg 88%
    04:00 +25°C° 0 mm 3 mps 757 mmHg 89%
    05:00 +25°C° 0 mm 3 mps 757 mmHg 88%
    06:00 +26°C° 0 mm 3 mps 758 mmHg 86%
    07:00 +26°C° 0 mm 3 mps 758 mmHg 85%
    08:00 +27°C° 0 mm 2 mps 758 mmHg 76%
    09:00 +29°C° 0 mm 2 mps 759 mmHg 66%
    10:00 +31°C° 0 mm 2 mps 759 mmHg 57%
    11:00 +31°C° 0.1 mm 2 mps 758 mmHg 61%
    12:00 +30°C° 0.1 mm 2 mps 758 mmHg 65%
    13:00 +30°C° 0.1 mm 2 mps 757 mmHg 69%
    14:00 +29°C° 0.2 mm 1 mps 757 mmHg 72%
    15:00 +29°C° 0.2 mm 1 mps 757 mmHg 75%
    16:00 +28°C° 0.2 mm 1 mps 757 mmHg 78%
    17:00 +27°C° 0.2 mm 1 mps 758 mmHg 81%
    18:00 +26°C° 0.2 mm 2 mps 758 mmHg 83%
    19:00 +26°C° 0.2 mm 3 mps 759 mmHg 86%
    20:00 +25°C° 0.8 mm 3 mps 759 mmHg 88%
    21:00 +25°C° 0.8 mm 4 mps 760 mmHg 90%
    22:00 +25°C° 0.8 mm 5 mps 760 mmHg 92%
    23:00 +23°C° 1 mm 5 mps 760 mmHg 93%

    27 March, Wednesday

    Time Temperature Precipitation Wind Pressure Humidity
    00:00 +23°C° 1 mm 5 mps 760 mmHg 93%
    01:00 +23°C° 1 mm 5 mps 760 mmHg 93%
    02:00 +23°C° 0.9 mm 5 mps 759 mmHg 94%
    03:00 +23°C° 0.9 mm 5 mps 759 mmHg 94%
    04:00 +23°C° 0.9 mm 5 mps 759 mmHg 95%
    05:00 +22°C° 0.2 mm 5 mps 760 mmHg 94%
    06:00 +22°C° 0.2 mm 5 mps 760 mmHg 94%
    07:00 +22°C° 0.2 mm 4 mps 760 mmHg 94%
    08:00 +23°C° 0.2 mm 4 mps 761 mmHg 93%
    09:00 +23°C° 0.2 mm 4 mps 761 mmHg 91%
    10:00 +25°C° 0.2 mm 4 mps 761 mmHg 90%
    11:00 +25°C° 0.1 mm 4 mps 761 mmHg 86%
    12:00 +26°C° 0.1 mm 5 mps 760 mmHg 83%
    13:00 +27°C° 0.1 mm 5 mps 760 mmHg 79%
    14:00 +26°C° 0.1 mm 5 mps 760 mmHg 80%
    15:00 +26°C° 0.1 mm 5 mps 760 mmHg 82%
    16:00 +26°C° 0.1 mm 5 mps 760 mmHg 83%
    17:00 +25°C° 0.4 mm 5 mps 760 mmHg 86%
    18:00 +23°C° 0.4 mm 5 mps 760 mmHg 89%
    19:00 +23°C° 0.4 mm 5 mps 760 mmHg 92%
    20:00 +23°C° 0.8 mm 5 mps 761 mmHg 92%
    21:00 +23°C° 0.8 mm 5 mps 761 mmHg 93%
    22:00 +22°C° 0.8 mm 5 mps 761 mmHg 93%
    23:00 +22°C° 1.2 mm 4 mps 760 mmHg 94%

    28 March, Thursday

    Time Temperature Precipitation Wind Pressure Humidity
    00:00 +22°C° 1.2 mm 4 mps 760 mmHg 94%
    01:00 +22°C° 1.2 mm 4 mps 759 mmHg 95%
    02:00 +22°C° 1.8 mm 4 mps 759 mmHg 95%
    03:00 +22°C° 1.8 mm 4 mps 759 mmHg 95%
    04:00 +22°C° 1.8 mm 4 mps 758 mmHg 95%
    05:00 +22°C° 1.3 mm 4 mps 759 mmHg 95%
    06:00 +22°C° 1.3 mm 3 mps 759 mmHg 95%
    07:00 +22°C° 1.3 mm 3 mps 759 mmHg 95%
    08:00 +22°C° 1.3 mm 3 mps 759 mmHg 94%
    09:00 +24°C° 1.3 mm 2 mps 760 mmHg 93%
    10:00 +24°C° 1.3 mm 2 mps 760 mmHg 92%
    11:00 +24°C° 0.8 mm 2 mps 759 mmHg 92%
    12:00 +24°C° 0.8 mm 2 mps 759 mmHg 91%
    13:00 +25°C° 0.8 mm 2 mps 758 mmHg 91%
    14:00 +24°C° 0.7 mm 3 mps 758 mmHg 92%
    15:00 +24°C° 0.7 mm 3 mps 758 mmHg 93%
    16:00 +22°C° 0.7 mm 3 mps 757 mmHg 94%
    17:00 +22°C° 0.3 mm 3 mps 758 mmHg 95%
    18:00 +22°C° 0.3 mm 3 mps 758 mmHg 95%
    19:00 +22°C° 0.3 mm 3 mps 758 mmHg 95%
    20:00 +22°C° 0.4 mm 3 mps 758 mmHg 95%
    21:00 +22°C° 0.4 mm 3 mps 758 mmHg 95%
    22:00 +22°C° 0.4 mm 3 mps 758 mmHg 95%
    23:00 +22°C° 0.6 mm 3 mps 757 mmHg 95%
    Show more